Location: Arbon
(43.0005°N, 0.7472°E)
Time: 19:19:19
(UTC+00:00)

Cosmos 2219 - Pass Details

Date: 07 August 2020
Orbit: 834 x 860 km, 71.1° (Epoch: 24 September)

Event Time Altitude Azimuth Distance (km) Brightness Sun altitude
Exits shadow 00:45:12 34° 90° (E) 1,351 4.3 -29.9°
Drops below altitude 10° 00:49:34 10° 41° (NE) 2,451 6.3 -29.7°
Sets 00:52:11 0° 33° (NNE) 3,389 7.4 -29.6°
